Beaufort, NC

5:46 AM EDT on April 27, 2017 (GMT -0400)
Smith

Weather History for KMRH - December, 2011

Change the Weather History Date:

Friday, December 30, 2011

  Actual Average Record
Temperature  
Mean Temperature 53 °F -  
Max Temperature 60 °F 57 °F 75 °F (2015)
Min Temperature 46 °F 36 °F 21 °F (1970)
Degree Days  
Heating Degree Days 12    
Growing Degree Days 3 (Base 50)    
Moisture  
Dew Point 46 °F    
Average Humidity 75    
Maximum Humidity 93    
Minimum Humidity 60    
Precipitation  
Precipitation 0.00 in - - ()
Sea Level Pressure  
Sea Level Pressure 30.11 in    
Wind  
Wind Speed 7 mph (SW)    
Max Wind Speed 14 mph    
Max Gust Speed -    
Visibility 10 miles    
Events      
Averages and records for this station are not official NWS values.
T = Trace of Precipitation, MM = Missing Value Source: NWS Daily Summary

Daily Weather History Graph

Daily Weather History Graph

Search for Another Location

Airport or City:

Trip Planner

Search our weather history database for the weather conditions in past years. The results will help you decide how hot, cold, wet, or windy it might be!

Date:

Astronomy

Dec. 30, 2011 Rise Set
Actual Time 7:13 AM EST 5:04 PM EST
Civil Twilight 6:45 AM EST 5:32 PM EST
Nautical Twilight 6:13 AM EST 6:04 PM EST
Astronomical Twilight 5:43 AM EST 6:35 PM EST
Moon 10:47 AM EST (12/30) 11:21 PM EST (12/30)
Length of Visible Light 10h 47m
Length of Day
9h 51m
Waxing Crescent, 35% of the Moon is Illuminated
Dec 30
Waxing Crescent
Jan 1
First Quarter
Jan 9
Full
Jan 16
Last Quarter
Jan 23
New

Hourly Weather History & Observations

Time (EST) Temp. Dew Point Humidity Pressure Visibility Wind Dir Wind Speed Gust Speed Precip Events Conditions
12:56 AM 48.0 °F 39.0 °F 71% 30.11 in 10.0 mi West 5.8 mph - N/A   Clear
1:56 AM 48.0 °F 39.0 °F 71% 30.11 in 10.0 mi West 5.8 mph - N/A   Clear
2:56 AM 48.9 °F 41.0 °F 74% 30.11 in 10.0 mi West 5.8 mph - N/A   Clear
3:56 AM 48.0 °F 41.0 °F 77% 30.11 in 10.0 mi West 4.6 mph - N/A   Clear
5:56 AM 46.9 °F 39.0 °F 74% 30.13 in 10.0 mi WSW 4.6 mph - N/A   Clear
8:56 AM 54.0 °F 46.9 °F 77% 30.18 in 10.0 mi WSW 5.8 mph - N/A   Clear
9:56 AM 57.0 °F 48.0 °F 72% 30.18 in 10.0 mi SW 9.2 mph - N/A   Clear
10:56 AM 57.9 °F 46.9 °F 67% 30.17 in 10.0 mi WSW 9.2 mph - N/A   Clear
11:56 AM 59.0 °F 46.9 °F 64% 30.14 in 10.0 mi WSW 9.2 mph - N/A   Clear
12:56 PM 59.0 °F 46.9 °F 64% 30.10 in 10.0 mi SW 10.4 mph - N/A   Clear
1:56 PM 59.0 °F 45.0 °F 60% 30.09 in 10.0 mi SW 13.8 mph - N/A   Clear
2:56 PM 60.1 °F 46.0 °F 60% 30.09 in 10.0 mi SW 10.4 mph - N/A   Clear
3:56 PM 57.9 °F 48.0 °F 70% 30.08 in 10.0 mi SSW 8.1 mph - N/A   Clear
4:56 PM 55.0 °F 46.9 °F 74% 30.08 in 10.0 mi SW 6.9 mph - N/A   Clear
5:56 PM 54.0 °F 48.9 °F 83% 30.09 in 10.0 mi SW 6.9 mph - N/A   Clear
6:56 PM 55.0 °F 48.9 °F 80% 30.09 in 10.0 mi SW 8.1 mph - N/A   Clear
7:56 PM 53.1 °F 48.0 °F 83% 30.09 in 10.0 mi SW 5.8 mph - N/A   Clear
8:56 PM 54.0 °F 50.0 °F 86% 30.08 in 10.0 mi SSE 6.9 mph - N/A   Clear
9:56 PM 54.0 °F 50.0 °F 86% 30.08 in 10.0 mi West 6.9 mph - N/A   Clear
10:56 PM 54.0 °F 51.1 °F 90% 30.06 in 10.0 mi SSE 3.5 mph - N/A   Clear
11:56 PM 55.9 °F 54.0 °F 93% 30.05 in 10.0 mi Calm Calm - N/A   Overcast